| time (UTC) | temp F | wind direction | speed MPH | gust MPH | rain 1hr in | rain 24hr in | rain mn in | humidity % | barometer mb |
| 20260905224534 | 66 | 130 | 0.0 | 5.0 | 0.00 | 0.00 | 0.00 | 81 | 957.5 |
| 20260905223039 | 67 | 246 | 3.0 | 6.0 | 0.00 | 0.00 | 0.00 | 80 | 957.6 |
| 20260905221543 | 67 | 267 | 3.0 | 7.0 | 0.00 | 0.00 | 0.00 | 78 | 957.3 |
| 20260905220034 | 69 | 246 | 1.0 | 5.0 | 0.00 | 0.00 | 0.00 | 76 | 957.3 |
| 20260905214532 | 69 | 53 | 1.0 | 3.0 | 0.00 | 0.00 | 0.00 | 77 | 957.0 |
| 20260905213034 | 70 | 265 | 3.0 | 8.0 | 0.00 | 0.00 | 0.00 | 76 | 956.9 |
| 20260905211542 | 71 | 256 | 3.0 | 7.0 | 0.00 | 0.00 | 0.00 | 74 | 956.9 |
| 20260905210033 | 71 | 306 | 2.0 | 6.0 | 0.00 | 0.00 | 0.00 | 75 | 956.8 |
| 20260905204530 | 71 | 355 | 2.0 | 6.0 | 0.00 | 0.00 | 0.00 | 75 | 956.7 |
| 20260905203033 | 70 | 152 | 1.0 | 6.0 | 0.00 | 0.00 | 0.00 | 76 | 956.8 |
| 20260905201535 | 70 | 280 | 1.0 | 4.0 | 0.00 | 0.00 | 0.00 | 75 | 956.8 |
| 20260905200045 | 70 | 338 | 1.0 | 4.0 | 0.00 | 0.00 | 0.00 | 75 | 956.9 |
| 20260905194532 | 70 | 284 | 2.0 | 6.0 | 0.00 | 0.00 | 0.00 | 74 | 956.7 |
| 20260905193027 | 71 | 5 | 0.0 | 0.0 | 0.00 | 0.00 | 0.00 | 73 | 956.8 |
| 20260905191527 | 71 | 5 | 0.0 | 3.0 | 0.00 | 0.00 | 0.00 | 71 | 956.8 |
| 20260905190026 | 71 | 19 | 1.0 | 4.0 | 0.00 | 0.00 | 0.00 | 69 | 956.8 |
| 20260905184532 | 72 | 262 | 3.0 | 6.0 | 0.00 | 0.00 | 0.00 | 68 | 956.8 |
| 20260905183025 | 72 | 286 | 2.0 | 7.0 | 0.00 | 0.00 | 0.00 | 69 | 956.8 |
| 20260905181523 | 72 | 281 | 1.0 | 7.0 | 0.00 | 0.00 | 0.00 | 70 | 956.9 |
| 20260905180020 | 71 | 294 | 2.0 | 5.0 | 0.00 | 0.00 | 0.00 | 72 | 956.9 |
| 20260905174520 | 70 | 24 | 2.0 | 6.0 | 0.00 | 0.00 | 0.00 | 72 | 956.9 |
| 20260905173019 | 70 | 5 | 2.0 | 5.0 | 0.00 | 0.00 | 0.00 | 73 | 956.9 |
| 20260905171535 | 69 | 286 | 3.0 | 7.0 | 0.00 | 0.00 | 0.00 | 75 | 957.1 |
| 20260905170022 | 69 | 279 | 1.0 | 9.0 | 0.00 | 0.00 | 0.00 | 73 | 957.1 |
| 20260905164517 | 71 | 360 | 2.0 | 6.0 | 0.00 | 0.00 | 0.00 | 72 | 957.2 |
| 20260905163018 | 70 | 74 | 0.0 | 8.0 | 0.00 | 0.00 | 0.00 | 74 | 957.0 |
| 20260905161517 | 70 | 248 | 1.0 | 5.0 | 0.00 | 0.00 | 0.00 | 74 | 957.3 |
| 20260905160024 | 69 | 355 | 1.0 | 8.0 | 0.00 | 0.00 | 0.00 | 76 | 957.3 |
| 20260905154513 | 69 | 68 | 2.0 | 7.0 | 0.00 | 0.00 | 0.00 | 76 | 957.3 |
| 20260905153010 | 67 | 355 | 1.0 | 5.0 | 0.00 | 0.00 | 0.00 | 78 | 957.3 |
| 20260905151504 | 67 | 333 | 2.0 | 9.0 | 0.00 | 0.00 | 0.00 | 79 | 957.4 |
| 20260905150002 | 67 | 282 | 1.0 | 8.0 | 0.00 | 0.00 | 0.00 | 81 | 957.4 |
| 20260905144559 | 66 | 336 | 3.0 | 6.0 | 0.00 | 0.00 | 0.00 | 81 | 957.3 |
| 20260905143057 | 66 | 243 | 3.0 | 9.0 | 0.00 | 0.00 | 0.00 | 82 | 957.3 |
| 20260905141556 | 65 | 63 | 2.0 | 9.0 | 0.00 | 0.00 | 0.00 | 83 | 957.3 |
| 20260905140053 | 65 | 84 | 2.0 | 8.0 | 0.00 | 0.00 | 0.00 | 84 | 957.4 |
| 20260905134553 | 64 | 139 | 0.0 | 5.0 | 0.00 | 0.00 | 0.00 | 86 | 957.3 |
| 20260905133046 | 64 | 281 | 1.0 | 8.0 | 0.00 | 0.00 | 0.00 | 86 | 957.1 |
| 20260905131542 | 62 | 211 | 1.0 | 5.0 | 0.00 | 0.00 | 0.00 | 89 | 957.1 |
| 20260905130037 | 61 | 44 | 1.0 | 5.0 | 0.00 | 0.00 | 0.00 | 91 | 957.3 |
| 20260905124543 | 60 | 293 | 2.0 | 7.0 | 0.00 | 0.00 | 0.00 | 91 | 957.5 |
| 20260905123029 | 59 | 266 | 2.0 | 8.0 | 0.00 | 0.00 | 0.00 | 91 | 957.5 |
| 20260905121524 | 58 | 290 | 2.0 | 4.0 | 0.00 | 0.00 | 0.00 | 91 | 957.6 |
| 20260905120021 | 58 | 286 | 1.0 | 3.0 | 0.00 | 0.00 | 0.00 | 91 | 957.2 |
| 20260905114520 | 58 | 339 | 0.0 | 4.0 | 0.00 | 0.00 | 0.00 | 91 | 957.0 |
| 20260905113019 | 57 | 288 | 1.0 | 3.0 | 0.00 | 0.00 | 0.00 | 91 | 957.0 |
| 20260905111517 | 57 | 309 | 0.0 | 5.0 | 0.00 | 0.00 | 0.00 | 91 | 956.9 |
| 20260905110015 | 57 | 271 | 2.0 | 5.0 | 0.00 | 0.00 | 0.00 | 91 | 956.9 |
| 20260905104523 | 57 | 255 | 2.0 | 7.0 | 0.00 | 0.00 | 0.00 | 91 | 956.4 |
| 20260905103013 | 58 | 268 | 1.0 | 7.0 | 0.00 | 0.00 | 0.00 | 91 | 956.4 |
| 20260905101512 | 58 | 284 | 1.0 | 4.0 | 0.00 | 0.00 | 0.00 | 91 | 956.2 |
| 20260905100012 | 58 | 287 | 0.0 | 2.0 | 0.00 | 0.00 | 0.00 | 91 | 956.1 |
| 20260905094510 | 58 | 311 | 1.0 | 7.0 | 0.00 | 0.00 | 0.00 | 91 | 956.0 |
| 20260905093010 | 57 | 296 | 2.0 | 3.0 | 0.00 | 0.00 | 0.00 | 91 | 956.0 |
| 20260905091508 | 57 | 301 | 0.0 | 1.0 | 0.00 | 0.00 | 0.00 | 90 | 955.9 |
| 20260905090009 | 57 | 301 | 1.0 | 3.0 | 0.00 | 0.00 | 0.00 | 90 | 956.1 |
| 20260905084511 | 58 | 322 | 1.0 | 3.0 | 0.00 | 0.00 | 0.00 | 90 | 956.0 |
| 20260905083004 | 58 | 326 | 0.0 | 2.0 | 0.00 | 0.00 | 0.00 | 90 | 956.0 |
| 20260905081502 | 58 | 269 | 0.0 | 2.0 | 0.00 | 0.00 | 0.00 | 90 | 956.1 |
| 20260905080002 | 58 | 320 | 1.0 | 4.0 | 0.00 | 0.00 | 0.00 | 90 | 956.2 |
| 20260905074600 | 58 | 273 | 1.0 | 4.0 | 0.00 | 0.00 | 0.00 | 89 | 956.2 |
| 20260905073100 | 58 | 298 | 0.0 | 3.0 | 0.00 | 0.00 | 0.00 | 89 | 956.3 |
| 20260905071602 | 59 | 342 | 1.0 | 3.0 | 0.00 | 0.00 | 0.00 | 89 | 956.4 |
| 20260905070054 | 59 | 311 | 1.0 | 4.0 | 0.00 | 0.00 | 0.00 | 89 | 956.6 |
| 20260905064557 | 60 | 272 | 0.0 | 3.0 | 0.00 | 0.00 | 0.00 | 88 | 956.6 |
| 20260905063051 | 60 | 258 | 0.0 | 4.0 | 0.00 | 0.00 | 0.00 | 88 | 956.7 |
| 20260905061606 | 60 | 241 | 2.0 | 6.0 | 0.00 | 0.00 | 0.00 | 88 | 956.9 |
| 20260905060047 | 61 | 275 | 3.0 | 7.0 | 0.00 | 0.00 | 0.00 | 87 | 956.8 |
| 20260905054547 | 61 | 269 | 3.0 | 8.0 | 0.00 | 0.00 | 0.00 | 86 | 956.9 |
| 20260905053050 | 61 | 257 | 3.0 | 7.0 | 0.00 | 0.00 | 0.00 | 86 | 956.9 |
| 20260905051545 | 61 | 276 | 3.0 | 7.0 | 0.00 | 0.00 | 0.00 | 86 | 957.1 |
| 20260905050043 | 61 | 271 | 3.0 | 8.0 | 0.00 | 0.00 | 0.00 | 86 | 957.2 |
| 20260905044541 | 61 | 265 | 3.0 | 7.0 | 0.00 | 0.31 | 0.00 | 86 | 957.2 |
| 20260905043105 | 61 | 276 | 3.0 | 6.0 | 0.00 | 0.31 | 0.00 | 86 | 957.3 |
| 20260905041638 | 61 | 271 | 0.0 | 4.0 | 0.00 | 0.31 | 0.00 | 85 | 957.4 |
| 20260905040045 | 61 | 290 | 2.0 | 4.0 | 0.00 | 0.31 | 0.00 | 85 | 957.4 |
| 20260905034533 | 62 | 306 | 0.0 | 3.0 | 0.00 | 0.43 | 0.31 | 86 | 957.3 |
| 20260905033035 | 62 | 292 | 0.0 | 2.0 | 0.00 | 0.43 | 0.31 | 86 | 957.3 |
| 20260905031530 | 63 | 292 | 0.0 | 2.0 | 0.00 | 0.43 | 0.31 | 85 | 957.3 |
| 20260905030030 | 63 | 292 | 0.0 | 1.0 | 0.00 | 0.43 | 0.31 | 85 | 957.3 |
| 20260905024530 | 63 | 296 | 0.0 | 3.0 | 0.00 | 0.43 | 0.31 | 84 | 957.3 |
| 20260905023033 | 63 | 295 | 0.0 | 1.0 | 0.00 | 0.43 | 0.31 | 84 | 957.2 |
| 20260905021533 | 64 | 295 | 0.0 | 1.0 | 0.00 | 0.43 | 0.31 | 84 | 957.3 |
| 20260905020027 | 64 | 295 | 0.0 | 1.0 | 0.00 | 0.43 | 0.31 | 83 | 957.4 |
| 20260905014527 | 65 | 286 | 0.0 | 3.0 | 0.00 | 0.43 | 0.31 | 84 | 957.6 |
| 20260905013027 | 65 | 279 | 0.0 | 4.0 | 0.00 | 0.43 | 0.31 | 84 | 957.8 |
| 20260905011525 | 65 | 334 | 0.0 | 3.0 | 0.00 | 0.43 | 0.31 | 83 | 957.5 |
| 20260905010025 | 66 | 336 | 0.0 | 1.0 | 0.00 | 0.43 | 0.31 | 83 | 957.5 |
| 20260905004525 | 66 | 336 | 0.0 | 5.0 | 0.00 | 0.43 | 0.31 | 83 | 957.6 |
| 20260905003025 | 66 | 283 | 0.0 | 4.0 | 0.00 | 0.43 | 0.31 | 83 | 957.4 |
| 20260905001529 | 66 | 341 | 0.0 | 3.0 | 0.00 | 0.43 | 0.31 | 82 | 957.3 |
| 20260905000031 | 67 | 355 | 0.0 | 4.0 | 0.00 | 0.43 | 0.31 | 81 | 957.2 |
| 20260904234528 | 68 | 346 | 0.0 | 3.0 | 0.00 | 0.43 | 0.31 | 81 | 957.1 |
| 20260904233025 | 68 | 286 | 1.0 | 3.0 | 0.00 | 0.43 | 0.31 | 80 | 957.1 |
| 20260904231520 | 68 | 261 | 1.0 | 4.0 | 0.00 | 0.43 | 0.31 | 79 | 957.1 |
| 20260904230022 | 69 | 288 | 2.0 | 4.0 | 0.00 | 0.43 | 0.31 | 78 | 957.0 |